| time (UTC) | temp C | wind direction | speed KPH | gust KPH | rain 1hr cm | rain 24hr cm | rain mn cm | humidity % | barometer mb |
| 20260504010101 | 12 | 0 | 0.0 | 1.6 | 0.00 | 0.00 | 0.00 | 49 | 1012.3 |
| 20260504005600 | 12 | 0 | 0.0 | 1.6 | 0.00 | 0.00 | 0.00 | 48 | 1012.2 |
| 20260504005100 | 12 | 244 | 0.0 | 3.2 | 0.00 | 0.00 | 0.00 | 47 | 1012.2 |
| 20260504004559 | 12 | 244 | 1.6 | 3.2 | 0.00 | 0.00 | 0.00 | 47 | 1012.1 |
| 20260504004059 | 12 | 248 | 0.0 | 3.2 | 0.00 | 0.00 | 0.00 | 47 | 1012.1 |
| 20260504003600 | 12 | 238 | 0.0 | 3.2 | 0.00 | 0.00 | 0.00 | 48 | 1012.1 |
| 20260504003100 | 12 | 250 | 1.6 | 3.2 | 0.00 | 0.00 | 0.00 | 46 | 1012.1 |
| 20260504002600 | 12 | 243 | 1.6 | 3.2 | 0.00 | 0.00 | 0.00 | 45 | 1012.1 |
| 20260504002100 | 13 | 245 | 0.0 | 3.2 | 0.00 | 0.00 | 0.00 | 46 | 1012.1 |
| 20260504001600 | 13 | 247 | 0.0 | 3.2 | 0.00 | 0.00 | 0.00 | 46 | 1012.1 |
| 20260504001059 | 13 | 0 | 0.0 | 3.2 | 0.00 | 0.00 | 0.00 | 46 | 1012.1 |
| 20260504000559 | 13 | 260 | 1.6 | 3.2 | 0.00 | 0.00 | 0.00 | 44 | 1012.1 |
| 20260504000108 | 13 | 250 | 1.6 | 3.2 | 0.00 | 0.00 | 0.00 | 44 | 1012.1 |
| 20260503235600 | 13 | 252 | 1.6 | 3.2 | 0.00 | 0.00 | 0.00 | 44 | 1012.2 |
| 20260503235101 | 13 | 249 | 0.0 | 4.8 | 0.00 | 0.00 | 0.00 | 45 | 1012.3 |
| 20260503234559 | 13 | 250 | 1.6 | 4.8 | 0.00 | 0.00 | 0.00 | 44 | 1012.3 |
| 20260503234100 | 13 | 256 | 1.6 | 4.8 | 0.00 | 0.00 | 0.00 | 45 | 1012.2 |
| 20260503233601 | 13 | 252 | 1.6 | 6.4 | 0.00 | 0.00 | 0.00 | 43 | 1012.2 |
| 20260503233059 | 13 | 247 | 1.6 | 6.4 | 0.00 | 0.00 | 0.00 | 44 | 1012.3 |
| 20260503232559 | 13 | 276 | 1.6 | 4.8 | 0.00 | 0.00 | 0.00 | 43 | 1012.2 |
| 20260503232059 | 13 | 243 | 1.6 | 4.8 | 0.00 | 0.00 | 0.00 | 45 | 1012.3 |
| 20260503231559 | 13 | 268 | 1.6 | 4.8 | 0.00 | 0.00 | 0.00 | 44 | 1012.4 |
| 20260503231143 | 13 | 252 | 0.0 | 4.8 | 0.00 | 0.00 | 0.00 | 45 | 1012.4 |
| 20260503230601 | 13 | 250 | 0.0 | 3.2 | 0.00 | 0.00 | 0.00 | 45 | 1012.4 |
| 20260503230106 | 13 | 264 | 1.6 | 4.8 | 0.00 | 0.00 | 0.00 | 44 | 1012.4 |
| 20260503225600 | 13 | 281 | 1.6 | 4.8 | 0.00 | 0.00 | 0.00 | 43 | 1012.4 |
| 20260503225100 | 13 | 263 | 3.2 | 4.8 | 0.00 | 0.00 | 0.00 | 43 | 1012.4 |
| 20260503224606 | 13 | 275 | 1.6 | 4.8 | 0.00 | 0.00 | 0.00 | 42 | 1012.4 |
| 20260503224101 | 13 | 240 | 3.2 | 4.8 | 0.00 | 0.00 | 0.00 | 42 | 1012.4 |
| 20260503223601 | 13 | 159 | 1.6 | 4.8 | 0.00 | 0.00 | 0.00 | 45 | 1012.4 |
| 20260503223108 | 13 | 257 | 1.6 | 4.8 | 0.00 | 0.00 | 0.00 | 43 | 1012.6 |
| 20260503222559 | 13 | 240 | 1.6 | 4.8 | 0.00 | 0.00 | 0.00 | 42 | 1012.5 |
| 20260503222059 | 13 | 248 | 3.2 | 4.8 | 0.00 | 0.00 | 0.00 | 43 | 1012.7 |
| 20260503221609 | 13 | 279 | 1.6 | 8.0 | 0.00 | 0.00 | 0.00 | 43 | 1012.6 |
| 20260503221059 | 13 | 237 | 3.2 | 8.0 | 0.00 | 0.00 | 0.00 | 41 | 1012.5 |
| 20260503220559 | 14 | 247 | 3.2 | 8.0 | 0.00 | 0.00 | 0.00 | 41 | 1012.4 |
| 20260503220100 | 14 | 266 | 3.2 | 6.4 | 0.00 | 0.00 | 0.00 | 43 | 1012.6 |
| 20260503215559 | 14 | 248 | 3.2 | 6.4 | 0.00 | 0.00 | 0.00 | 42 | 1012.6 |
| 20260503215059 | 14 | 229 | 3.2 | 8.0 | 0.00 | 0.00 | 0.00 | 43 | 1012.7 |
| 20260503214558 | 14 | 286 | 3.2 | 8.0 | 0.00 | 0.00 | 0.00 | 42 | 1012.7 |
| 20260503214100 | 14 | 234 | 3.2 | 6.4 | 0.00 | 0.00 | 0.00 | 40 | 1012.5 |
| 20260503213559 | 14 | 224 | 3.2 | 6.4 | 0.00 | 0.00 | 0.00 | 41 | 1012.5 |
| 20260503213103 | 14 | 248 | 3.2 | 8.0 | 0.00 | 0.00 | 0.00 | 42 | 1012.5 |
| 20260503212600 | 14 | 252 | 3.2 | 8.0 | 0.00 | 0.00 | 0.00 | 41 | 1012.4 |
| 20260503212059 | 14 | 244 | 1.6 | 8.0 | 0.00 | 0.00 | 0.00 | 43 | 1012.5 |
| 20260503211602 | 14 | 228 | 3.2 | 8.0 | 0.00 | 0.00 | 0.00 | 41 | 1012.4 |
| 20260503211059 | 15 | 249 | 1.6 | 6.4 | 0.00 | 0.00 | 0.00 | 43 | 1012.5 |
| 20260503210559 | 15 | 243 | 3.2 | 4.8 | 0.00 | 0.00 | 0.00 | 43 | 1012.4 |
| 20260503210058 | 15 | 238 | 1.6 | 4.8 | 0.00 | 0.00 | 0.00 | 40 | 1012.4 |
| 20260503205600 | 15 | 241 | 0.0 | 6.4 | 0.00 | 0.00 | 0.00 | 40 | 1012.3 |
| 20260503205100 | 15 | 255 | 3.2 | 6.4 | 0.00 | 0.00 | 0.00 | 40 | 1012.5 |
| 20260503204620 | 15 | 266 | 1.6 | 6.4 | 0.00 | 0.00 | 0.00 | 40 | 1012.4 |
| 20260503204059 | 15 | 257 | 1.6 | 8.0 | 0.00 | 0.00 | 0.00 | 44 | 1012.4 |
| 20260503203559 | 14 | 273 | 3.2 | 8.0 | 0.00 | 0.00 | 0.00 | 40 | 1012.5 |
| 20260503203102 | 14 | 240 | 3.2 | 8.0 | 0.00 | 0.00 | 0.00 | 43 | 1012.7 |
| 20260503202600 | 15 | 255 | 1.6 | 8.0 | 0.00 | 0.00 | 0.00 | 38 | 1012.6 |
| 20260503202102 | 15 | 251 | 1.6 | 8.0 | 0.00 | 0.00 | 0.00 | 39 | 1012.7 |
| 20260503201558 | 15 | 236 | 3.2 | 8.0 | 0.00 | 0.00 | 0.00 | 39 | 1012.8 |
| 20260503201100 | 15 | 261 | 3.2 | 6.4 | 0.00 | 0.00 | 0.00 | 39 | 1012.9 |
| 20260503200559 | 14 | 283 | 3.2 | 8.0 | 0.00 | 0.00 | 0.00 | 40 | 1012.9 |
| 20260503200101 | 14 | 259 | 3.2 | 8.0 | 0.00 | 0.00 | 0.00 | 40 | 1013.1 |
| 20260503195600 | 14 | 252 | 3.2 | 6.4 | 0.00 | 0.00 | 0.00 | 41 | 1013.1 |
| 20260503195059 | 14 | 267 | 3.2 | 6.4 | 0.00 | 0.00 | 0.00 | 41 | 1013.3 |
| 20260503194609 | 14 | 261 | 3.2 | 6.4 | 0.00 | 0.00 | 0.00 | 39 | 1013.3 |
| 20260503194059 | 15 | 254 | 3.2 | 6.4 | 0.00 | 0.00 | 0.00 | 39 | 1013.4 |
| 20260503193559 | 15 | 290 | 3.2 | 11.3 | 0.00 | 0.00 | 0.00 | 38 | 1013.5 |
| 20260503193118 | 15 | 231 | 3.2 | 11.3 | 0.00 | 0.00 | 0.00 | 40 | 1013.6 |
| 20260503192559 | 15 | 250 | 4.8 | 8.0 | 0.00 | 0.00 | 0.00 | 39 | 1013.6 |
| 20260503192100 | 15 | 244 | 1.6 | 8.0 | 0.00 | 0.00 | 0.00 | 39 | 1013.6 |
| 20260503191618 | 15 | 261 | 1.6 | 9.7 | 0.00 | 0.00 | 0.00 | 40 | 1013.7 |
| 20260503191101 | 15 | 245 | 4.8 | 9.7 | 0.00 | 0.00 | 0.00 | 38 | 1013.8 |
| 20260503190600 | 15 | 245 | 3.2 | 8.0 | 0.00 | 0.00 | 0.00 | 38 | 1013.9 |
| 20260503190057 | 15 | 251 | 3.2 | 8.0 | 0.00 | 0.00 | 0.00 | 39 | 1013.9 |
| 20260503185603 | 14 | 259 | 4.8 | 8.0 | 0.00 | 0.00 | 0.00 | 40 | 1014.0 |
| 20260503185100 | 14 | 250 | 4.8 | 8.0 | 0.00 | 0.00 | 0.00 | 40 | 1014.0 |
| 20260503184607 | 15 | 243 | 3.2 | 9.7 | 0.00 | 0.00 | 0.00 | 42 | 1014.0 |
| 20260503184059 | 14 | 238 | 4.8 | 9.7 | 0.00 | 0.00 | 0.00 | 40 | 1014.1 |
| 20260503183602 | 14 | 278 | 3.2 | 6.4 | 0.00 | 0.00 | 0.00 | 40 | 1014.1 |
| 20260503183058 | 14 | 233 | 3.2 | 6.4 | 0.00 | 0.00 | 0.00 | 42 | 1014.2 |
| 20260503182559 | 14 | 245 | 3.2 | 6.4 | 0.00 | 0.00 | 0.00 | 41 | 1014.2 |
| 20260503182104 | 14 | 282 | 1.6 | 8.0 | 0.00 | 0.00 | 0.00 | 42 | 1014.2 |
| 20260503181559 | 14 | 243 | 3.2 | 8.0 | 0.00 | 0.00 | 0.00 | 41 | 1014.4 |
| 20260503181100 | 14 | 231 | 1.6 | 8.0 | 0.00 | 0.00 | 0.00 | 45 | 1014.4 |
| 20260503180603 | 14 | 254 | 3.2 | 9.7 | 0.00 | 0.00 | 0.00 | 39 | 1014.4 |
| 20260503175559 | 14 | 268 | 3.2 | 8.0 | 0.00 | 0.00 | 0.00 | 44 | 1014.4 |
| 20260503175100 | 14 | 252 | 4.8 | 8.0 | 0.00 | 0.00 | 0.00 | 42 | 1014.5 |
| 20260503174604 | 14 | 248 | 3.2 | 6.4 | 0.00 | 0.00 | 0.00 | 41 | 1014.6 |
| 20260503174059 | 14 | 252 | 1.6 | 8.0 | 0.00 | 0.00 | 0.00 | 42 | 1014.7 |
| 20260503173559 | 14 | 261 | 1.6 | 8.0 | 0.00 | 0.00 | 0.00 | 40 | 1014.6 |
| 20260503173106 | 14 | 257 | 1.6 | 8.0 | 0.00 | 0.00 | 0.00 | 41 | 1014.6 |
| 20260503172559 | 13 | 252 | 3.2 | 8.0 | 0.00 | 0.00 | 0.00 | 41 | 1014.7 |
| 20260503172101 | 14 | 285 | 1.6 | 8.0 | 0.00 | 0.00 | 0.00 | 41 | 1014.7 |
| 20260503171100 | 13 | 221 | 1.6 | 8.0 | 0.00 | 0.00 | 0.00 | 43 | 1015.0 |
| 20260503170601 | 13 | 269 | 3.2 | 8.0 | 0.00 | 0.00 | 0.00 | 42 | 1015.1 |
| 20260503170118 | 13 | 262 | 1.6 | 6.4 | 0.00 | 0.00 | 0.00 | 44 | 1015.1 |
| 20260503160109 | 12 | 239 | 4.8 | 8.0 | 0.00 | 0.00 | 0.00 | 44 | 1015.8 |
| 20260503150600 | 11 | 252 | 1.6 | 4.8 | 0.00 | 0.00 | 0.00 | 47 | 1016.1 |
| 20260503131100 | 6 | 239 | 1.6 | 3.2 | 0.00 | 0.00 | 0.00 | 58 | 1016.7 |
| 20260503130600 | 6 | 265 | 0.0 | 3.2 | 0.00 | 0.00 | 0.00 | 60 | 1016.6 |
| 20260503110600 | 0 | 0 | 0.0 | 0.0 | 0.00 | 0.05 | 0.00 | 93 | 1016.1 |
| 20260503110104 | 0 | 0 | 0.0 | 0.0 | 0.00 | 0.05 | 0.00 | 93 | 1016.1 |
| 20260503100106 | 0 | 0 | 0.0 | 0.0 | 0.00 | 0.15 | 0.00 | 92 | 1015.8 |
| 20260503081600 | 0 | 0 | 0.0 | 0.0 | 0.00 | 0.23 | 0.00 | 91 | 1015.9 |
| 20260503081100 | 0 | 0 | 0.0 | 0.0 | 0.00 | 0.23 | 0.00 | 91 | 1016.0 |
| 20260503080600 | 0 | 0 | 0.0 | 0.0 | 0.00 | 0.23 | 0.00 | 91 | 1016.0 |
| 20260503080106 | 0 | 0 | 0.0 | 0.0 | 0.00 | 0.23 | 0.00 | 91 | 1016.0 |
| 20260503072601 | 0 | 0 | 0.0 | 0.0 | 0.00 | 0.25 | 0.00 | 91 | 1015.9 |
| 20260503072101 | 0 | 0 | 0.0 | 0.0 | 0.00 | 0.25 | 0.00 | 91 | 1015.9 |
| 20260503071615 | 0 | 0 | 0.0 | 0.0 | 0.00 | 0.25 | 0.00 | 91 | 1015.9 |
| 20260503071100 | 0 | 0 | 0.0 | 0.0 | 0.00 | 0.25 | 0.00 | 90 | 1016.0 |
| 20260503070600 | 0 | 0 | 0.0 | 0.0 | 0.00 | 0.25 | 0.00 | 90 | 1016.0 |
| 20260503055100 | 1 | 0 | 0.0 | 0.0 | 0.00 | 0.33 | 0.00 | 88 | 1016.3 |
| 20260503054613 | 1 | 0 | 0.0 | 0.0 | 0.00 | 0.33 | 0.00 | 88 | 1016.3 |
| 20260503054100 | 1 | 0 | 0.0 | 0.0 | 0.00 | 0.33 | 0.00 | 88 | 1016.3 |
| 20260503053600 | 1 | 0 | 0.0 | 0.0 | 0.00 | 0.33 | 0.00 | 87 | 1016.3 |
| 20260503053057 | 1 | 0 | 0.0 | 0.0 | 0.00 | 0.33 | 0.00 | 87 | 1016.3 |
| 20260503052600 | 1 | 0 | 0.0 | 0.0 | 0.00 | 0.33 | 0.00 | 87 | 1016.4 |
| 20260503052100 | 1 | 0 | 0.0 | 0.0 | 0.00 | 0.33 | 0.00 | 86 | 1016.3 |
| 20260503051603 | 2 | 0 | 0.0 | 0.0 | 0.00 | 0.33 | 0.00 | 85 | 1016.4 |
| 20260503051102 | 2 | 0 | 0.0 | 0.0 | 0.00 | 0.33 | 0.00 | 85 | 1016.4 |
| 20260503050600 | 2 | 0 | 0.0 | 0.0 | 0.00 | 0.33 | 0.00 | 85 | 1016.4 |
| 20260503050058 | 2 | 0 | 0.0 | 0.0 | 0.00 | 0.33 | 0.00 | 84 | 1016.5 |
| 20260503045601 | 2 | 0 | 0.0 | 0.0 | 0.00 | 0.33 | 0.00 | 84 | 1016.5 |
| 20260503045101 | 2 | 0 | 0.0 | 0.0 | 0.00 | 0.33 | 0.00 | 83 | 1016.4 |
| 20260503044558 | 2 | 0 | 0.0 | 0.0 | 0.00 | 0.33 | 0.00 | 83 | 1016.5 |
| 20260503044100 | 2 | 0 | 0.0 | 0.0 | 0.00 | 0.33 | 0.00 | 82 | 1016.5 |
| 20260503043600 | 2 | 0 | 0.0 | 0.0 | 0.00 | 0.33 | 0.00 | 83 | 1016.4 |
| 20260503043100 | 2 | 0 | 0.0 | 0.0 | 0.00 | 0.33 | 0.00 | 82 | 1016.5 |
| 20260503042600 | 3 | 0 | 0.0 | 0.0 | 0.00 | 0.33 | 0.00 | 82 | 1016.5 |
| 20260503042143 | 3 | 0 | 0.0 | 0.0 | 0.00 | 0.33 | 0.00 | 83 | 1016.5 |
| 20260503041559 | 3 | 0 | 0.0 | 0.0 | 0.00 | 0.33 | 0.00 | 83 | 1016.5 |
| 20260503041104 | 3 | 0 | 0.0 | 0.0 | 0.00 | 0.33 | 0.00 | 83 | 1016.6 |
| 20260503040559 | 3 | 0 | 0.0 | 0.0 | 0.00 | 0.33 | 0.00 | 82 | 1016.6 |
| 20260503040058 | 3 | 0 | 0.0 | 0.0 | 0.00 | 0.33 | 0.00 | 82 | 1016.6 |
| 20260503035601 | 3 | 0 | 0.0 | 0.0 | 0.00 | 0.33 | 0.33 | 83 | 1016.7 |
| 20260503035103 | 3 | 0 | 0.0 | 0.0 | 0.00 | 0.33 | 0.33 | 83 | 1016.6 |
| 20260503034559 | 3 | 0 | 0.0 | 0.0 | 0.00 | 0.33 | 0.33 | 81 | 1016.6 |
| 20260503034100 | 3 | 0 | 0.0 | 0.0 | 0.00 | 0.33 | 0.33 | 81 | 1016.6 |
| 20260503033600 | 3 | 0 | 0.0 | 0.0 | 0.00 | 0.33 | 0.33 | 83 | 1016.6 |
| 20260503033104 | 3 | 0 | 0.0 | 0.0 | 0.00 | 0.33 | 0.33 | 82 | 1016.7 |
| 20260503032600 | 3 | 0 | 0.0 | 0.0 | 0.00 | 0.33 | 0.33 | 82 | 1016.6 |
| 20260503032100 | 3 | 0 | 0.0 | 0.0 | 0.00 | 0.33 | 0.33 | 82 | 1016.7 |
| 20260503031600 | 3 | 0 | 0.0 | 0.0 | 0.00 | 0.33 | 0.33 | 81 | 1016.8 |
| 20260503031103 | 3 | 0 | 0.0 | 0.0 | 0.00 | 0.33 | 0.33 | 81 | 1016.7 |
| 20260503030559 | 3 | 0 | 0.0 | 0.0 | 0.00 | 0.33 | 0.33 | 81 | 1016.8 |
| 20260503025600 | 3 | 0 | 0.0 | 0.0 | 0.00 | 0.33 | 0.33 | 80 | 1016.8 |
| 20260503025100 | 3 | 0 | 0.0 | 0.0 | 0.00 | 0.33 | 0.33 | 79 | 1016.9 |
| 20260503024600 | 3 | 0 | 0.0 | 0.0 | 0.00 | 0.33 | 0.33 | 79 | 1017.0 |
| 20260503024100 | 3 | 0 | 0.0 | 0.0 | 0.00 | 0.33 | 0.33 | 80 | 1017.0 |
| 20260503023600 | 3 | 0 | 0.0 | 0.0 | 0.00 | 0.33 | 0.33 | 80 | 1017.1 |
| 20260503023100 | 3 | 0 | 0.0 | 0.0 | 0.00 | 0.33 | 0.33 | 81 | 1017.0 |
| 20260503022602 | 3 | 0 | 0.0 | 0.0 | 0.00 | 0.33 | 0.33 | 81 | 1017.0 |
| 20260503022103 | 3 | 0 | 0.0 | 0.0 | 0.00 | 0.33 | 0.33 | 81 | 1017.2 |
| 20260503021600 | 3 | 0 | 0.0 | 0.0 | 0.00 | 0.33 | 0.33 | 80 | 1017.0 |
| 20260503021100 | 3 | 0 | 0.0 | 0.0 | 0.00 | 0.33 | 0.33 | 80 | 1017.1 |
| 20260503020600 | 3 | 0 | 0.0 | 0.0 | 0.00 | 0.33 | 0.33 | 81 | 1017.2 |
| 20260503020059 | 3 | 0 | 0.0 | 0.0 | 0.00 | 0.33 | 0.33 | 80 | 1017.1 |
| 20260503015601 | 3 | 0 | 0.0 | 0.0 | 0.00 | 0.33 | 0.33 | 79 | 1017.1 |
| 20260503015100 | 3 | 0 | 0.0 | 0.0 | 0.00 | 0.33 | 0.33 | 78 | 1017.1 |
| 20260503014603 | 3 | 0 | 0.0 | 0.0 | 0.00 | 0.33 | 0.33 | 78 | 1017.0 |
| 20260503014103 | 3 | 0 | 0.0 | 0.0 | 0.00 | 0.33 | 0.33 | 77 | 1017.0 |
| 20260503013600 | 3 | 0 | 0.0 | 0.0 | 0.00 | 0.33 | 0.33 | 76 | 1017.0 |
| 20260503013057 | 4 | 0 | 0.0 | 0.0 | 0.00 | 0.33 | 0.33 | 76 | 1017.0 |
| 20260503012602 | 4 | 0 | 0.0 | 0.0 | 0.00 | 0.33 | 0.33 | 75 | 1017.0 |
| 20260503012059 | 4 | 0 | 0.0 | 0.0 | 0.00 | 0.33 | 0.33 | 72 | 1017.0 |
| 20260503011600 | 4 | 0 | 0.0 | 0.0 | 0.00 | 0.33 | 0.33 | 71 | 1017.0 |
| 20260503011100 | 4 | 0 | 0.0 | 0.0 | 0.00 | 0.33 | 0.33 | 71 | 1017.0 |
| 20260503010600 | 4 | 0 | 0.0 | 0.0 | 0.00 | 0.33 | 0.33 | 71 | 1017.0 |